Weather in Pryazha

Russia / Republic of Karelia     61°41′34″N   33°37′10″E
temp.,
°C
wind,
m/s
gust,
m/s
humid.,
%
clouds,
%
prec.,
mm/h
press.,
hPa
HPBL,
m
19 september, sun
sun1900:00+5e1273100 0.0 103055
03:00+5ene2376100 0.0 1031111
06:00+5ene2681100 0.0 1031219
09:00+6ene2670100 0.0 1031586
12:00+7e3558100 0.0 10311471
15:00+8ene355585 0.0 10311464
18:00+6ene37636 0.0 1031380
21:00+5ene3973100 0.0 1031358
20 september, mon
mon2000:00+6e496992 0.0 1032705
03:00+2ene288619 0.0 1033244
06:00+4ene3973100 0.0 1033629
09:00+6ene3961100 0.0 10321461
12:00+8ene685661 0.0 10321428
15:00+7ene4857100 0.0 10311406
18:00+5ene4864100 0.0 10311334
21:00+5e4866100 0.0 10301021
21 september, tue
tue2100:00+4e2770100 0.0 1030375
03:00+2ene2781100 0.0 1029176
06:00+2ene31089100 0.0 1028359
09:00+5ene497599 0.0 1026718
12:00+8e4760100 0.0 1025954
15:00+8e4761100 0.0 1025986
18:00+7e3867100 0.0 1024767
21:00+4ene2681100 0.0 1024147
22 september, wed
wed2200:00+4ene248795 0.0 102487
03:00+3ene249441 0.0 102493
06:00+3ne279841 0.0 1025151
09:00+6ene388587 0.0 1025462
12:00+10e355859 0.0 1025873
15:00+11e345458 0.0 1024880
18:00+8e267048 0.0 1024262
21:00+6e247987 0.0 1023110
23 september, thu
thu2300:00+6e247899 0.0 1022113
03:00+6ese2481100 0.0 102088
06:00+7ese2781100 0.0 1019255
09:00+7se2785100 0.1 1018448
12:00+7se2689100 0.1 1017431
15:00+8sse258186 0.1 1015623
18:00+8se248699 0.1 1014241
21:00+7se268786 0.1 1013190